loading
|

STARLINK-32280, 60736

Orbit data source: Space-Track

STARLINK-32280, 60736 is a payload satellite owned by SpaceX/Seattle (US) in LEO that was launched on Wed, 28 Aug 2024 UTC via an FALCON 9 launch vehicle from the Air Force Eastern Test Range (AFETR). Payloads include a variety of satellites, spacecraft, and rockets equipped with specific instruments for various scientific and technological missions. These include communications satellites like Starlink; space stations such as the ISS; scientific satellites like the Hubble; Earth observation satellites from companies like Planet Labs, Umbra, and HawkEye 360; GPS; miniature CubeSats for education and research; and military/defense satellites.

Loading next visibility...
Loading greatness...
STARLINK-32280 details
Identifier
60736, 2024-152S
Orbit
LEO
Last TLE update8 hours ago
Origin
Flag of USSpaceX/Seattle (US)
ManufacturerSpaceX/Seattle
Mission statusOperational
MissionUnknown
Bus & MotorSTARLINK V2M, Unknown motor
Mass750 kg wet, ~700 kg dry
Launch date (UTC)
2024-08-28 (3 weeks ago)
Launch vehicle
FALCON 9
Launch site
Air Force Eastern Test Range (AFETR)
Object type
Payload
Rocket body
Debris
Radar Cross SectionLarge (>1 m²)

Expand to show TLE details & history

TLE from 8 hours ago
0 STARLINK-32280
1 60736U 24152S   24261.58335648 -.01768752  00000-0 -26990-1 0  9998
2 60736  53.1589 249.5357 0001010  76.0756 187.6182 15.57011685  4425
Epoch: 2024-09-17T14:00Z
Definitive object data (Epoch: 2024-09-17T14:00:01.999Z)
Latitude-52.85473°
Longitude-57.88962°
Altitude415.344 km
Speed7.661 km/s
True Right ascension09h 56m 27s
True Declination-52° 40' 50"
Sunlit
Object was in daylight at TLE epoch
Predictive object data (real-time)
Latitude-53.31224°
Longitude-48.91875°
Altitude419.175 km
Speed7.659 km/s
Apparent Right ascension05h 56m 15s
Apparent Declination-64° 24' 37"
Sunlit
Object is in daylight
Predictive observer data (real-time)
Local Sidereal Time14:32:47
Azimuth212.952° SW
Elevation-51.982°
Doppler factor1
Orbital elements
Apogee397.255 km
Perigee395.886 km
Semi-major axis6,774.708 km
Eccentricity0.000101
Inclination53.1589°
RAAN249.5357°
Arg. of periapsis76.0756°
True anomaly187.61667°
Mean anomaly187.6182°
Eccentric anomaly187.61743°
Mean motion3.89231 °/min
BSTAR-0.02699
Period92.49 mins
No data available

STARLINK-32280 Visibility forecast

Observer location: 39.9160978°, -105.1181434

STARLINK-32280 is not visible in the next 10 days
Span
Click to sort rows by Start time (UTC) header in descending order
Start Az.
Max El. time (UTC)
Max El. Az.
Max El.
End time (UTC)
End Az.